This is the latest recevied weather packets stored in our database for station/object K4PAD. If no packets are shown the sender has not sent any weather packets the latest 10 day(s).
| Time | Temp. | Humidity | Pressure | Rain* | Wind** | Luminosity | Snow |
|---|---|---|---|---|---|---|---|
| 1777739942 | 19.44° C | 96% | 1011.7 hPa | 0 mm | - | 175 W/m² | - |
| 1777739638 | 19.44° C | 96% | 1011.3 hPa | 1.27 mm | - | 181 W/m² | - |
| 1777739336 | 19.44° C | 97% | 1011.6 hPa | 1.27 mm | - | 170 W/m² | - |
| 1777739032 | 19.44° C | 96% | 1011.4 hPa | 8.89 mm | - | 171 W/m² | - |
| 1777738729 | 18.89° C | 96% | 1011.2 hPa | 27.69 mm | - | 153 W/m² | - |
| 1777738424 | 18.89° C | 96% | 1011.7 hPa | 21.08 mm | - | 11 W/m² | - |
| 1777738124 | 19.44° C | 96% | 1011.1 hPa | 10.67 mm | - | 35 W/m² | - |
| 1777737821 | 19.44° C | 96% | 1010.9 hPa | 9.65 mm | - | 66 W/m² | - |
| 1777737520 | 19.44° C | 96% | 1011.2 hPa | 3.05 mm | - | 103 W/m² | - |
| 1777737217 | 20° C | 96% | 1011.2 hPa | 1.27 mm | - | 56 W/m² | - |
| 1777736914 | 20° C | 96% | 1011 hPa | 0 mm | - | 48 W/m² | - |
| 1777736305 | 19.44° C | 96% | 1011 hPa | 0 mm | - | 236 W/m² | - |
| 1777736002 | 18.89° C | 96% | 1010.6 hPa | 1.78 mm | - | 246 W/m² | - |
| 1777735700 | 18.89° C | 96% | 1010.8 hPa | 1.78 mm | - | 307 W/m² | - |
| 1777735397 | 18.89° C | 95% | 1010.8 hPa | 0 mm | - | 298 W/m² | - |
| 1777735094 | 18.89° C | 95% | 1010.9 hPa | 0 mm | - | 248 W/m² | - |
| 1777734791 | 18.33° C | 95% | 1011 hPa | 0 mm | - | 142 W/m² | - |
| 1777734489 | 18.33° C | 95% | 1011.2 hPa | 0 mm | - | 148 W/m² | - |
| 1777734185 | 17.78° C | 95% | 1011.6 hPa | 1.27 mm | - | 132 W/m² | - |
| 1777733881 | 18.33° C | 95% | 1011.7 hPa | 3.05 mm | - | 85 W/m² | - |
| 1777733578 | 17.78° C | 95% | 1011.2 hPa | 6.1 mm | - | 112 W/m² | - |
| 1777733274 | 17.78° C | 94% | 1011.5 hPa | 7.11 mm | - | 34 W/m² | - |
| 1777732972 | 17.78° C | 93% | 1011.8 hPa | 7.87 mm | - | 53 W/m² | - |
| 1777732667 | 17.78° C | 92% | 1012.2 hPa | 12.7 mm | - | 18 W/m² | - |
| 1777732365 | 17.78° C | 92% | 1012.6 hPa | 14.99 mm | - | 14 W/m² | - |
* Rain latest hour (hover to see other rain measurements)
** Current wind speed in m/s (hover to see current wind gust speed)